Waarnemingen

Advertentie
Mijn weer
Ile Rousse, Frankrijk (7753): temperatuur & dauwpunt: 26.05.2020 04:00:00 - 01.06.2020 04:00:00 (CEST)Ile Rousse, Frankrijk (7753): windsnelheid & windstoten: 26.05.2020 04:00:00 - 01.06.2020 04:00:00 (CEST)Ile Rousse, Frankrijk (7753): windrichting: 26.05.2020 04:00:00 - 01.06.2020 04:00:00 (CEST)Ile Rousse, Frankrijk (7753): luchtdruk: 26.05.2020 04:00:00 - 01.06.2020 04:00:00 (CEST)Ile Rousse, Frankrijk (7753): zicht: 26.05.2020 04:00:00 - 01.06.2020 04:00:00 (CEST)Ile Rousse, Frankrijk (7753): neerslag: 26.05.2020 04:00:00 - 01.06.2020 04:00:00 (CEST)
Datum & Tijd tt [°C] td [°C] ff [km/u] ff [kn] fx [km/u] fx [kn] dd ppp [hPa] vv [km] rr [mm]
01.06.2020 04:00:00 17,4 13,5 0 0 6 3 N 1016,4 - 0,0
01.06.2020 03:00:00 17,2 13,3 2 1 5 3 ZO 1016,6 - 0,0
01.06.2020 02:00:00 17,2 13,3 2 1 9 5 ZO 1016,7 - 0,0
01.06.2020 01:00:00 17,3 13,8 8 4 15 8 ZZW 1016,6 - 0,0
01.06.2020 00:00:00 17,3 13,8 9 5 11 6 WZW 1016,4 - 0,0
31.05.2020 23:00:00 17,5 13,6 9 5 13 7 WZW 1016,2 - 0,0
31.05.2020 22:00:00 17,6 13,9 10 5 12 6 WZW 1015,9 - 0,0
31.05.2020 21:00:00 18,4 14,1 8 4 16 8 W 1015,1 - 0,0
31.05.2020 20:00:00 20,3 14,4 9 5 18 10 W 1014,8 25 0,0
31.05.2020 19:00:00 21,7 13,6 7 4 23 12 WNW 1014,8 - 0,0
31.05.2020 18:00:00 21,8 13,4 14 7 23 12 WNW 1015,2 - 0,0
31.05.2020 17:00:00 21,8 13,4 12 7 23 12 WNW 1015,6 25 0,0
31.05.2020 16:00:00 21,9 13,8 14 7 28 15 WNW 1015,8 - 0,0
31.05.2020 15:00:00 21,4 13,8 21 11 29 16 WNW 1015,8 - 0,0
31.05.2020 14:00:00 21,1 13,0 14 7 25 14 WNW 1015,9 25 0,0
31.05.2020 13:00:00 20,6 13,8 12 7 21 11 NW 1016,0 - 0,0
31.05.2020 12:00:00 19,6 13,5 11 6 20 11 NNW 1016,1 - 0,0
31.05.2020 11:00:00 19,2 13,4 11 6 18 10 NNO 1015,9 25 0,0
31.05.2020 10:00:00 18,6 13,7 9 5 16 9 NNW 1016,2 - 0,0
31.05.2020 09:00:00 18,2 13,3 5 3 11 6 NW 1015,9 - 0,0
31.05.2020 08:00:00 17,2 13,1 4 2 7 4 W 1015,7 - 0,0
31.05.2020 07:00:00 16,8 12,7 6 3 7 4 WZW 1015,6 - 0,0
31.05.2020 06:00:00 16,6 12,5 4 2 9 5 WZW 1015,4 - 0,0
31.05.2020 05:00:00 16,5 12,6 7 4 12 6 WZW 1015,2 - 0,0
31.05.2020 04:00:00 16,6 12,7 9 5 14 8 ZW 1015,2 - 0,0
31.05.2020 03:00:00 16,8 12,5 7 4 9 5 W 1015,5 - 0,0
31.05.2020 02:00:00 17,0 11,7 3 2 6 3 NNW 1015,7 - 0,0
31.05.2020 01:00:00 17,0 11,7 5 3 8 5 OZO 1015,9 - 0,0
31.05.2020 00:00:00 17,3 11,8 3 2 6 3 ZZO 1015,9 - 0,0
30.05.2020 23:00:00 17,3 11,8 0 0 9 5 N 1016,1 - 0,0
30.05.2020 22:00:00 17,5 12,2 9 5 18 10 N 1015,7 - 0,0
30.05.2020 21:00:00 17,9 12,8 13 7 17 9 NNW 1014,9 - 0,0
30.05.2020 20:00:00 19,5 12,3 7 4 18 10 NO 1014,0 35 0,0
30.05.2020 19:00:00 20,5 11,9 13 7 34 18 ONO 1013,7 - 0,0
30.05.2020 18:00:00 19,3 11,3 27 15 44 24 NNO 1013,8 - 0,0
30.05.2020 17:00:00 19,6 10,3 32 18 47 26 NO 1013,9 35 0,0
30.05.2020 16:00:00 19,9 10,0 37 20 58 31 NO 1014,1 - 0,0
30.05.2020 15:00:00 19,7 9,3 42 23 60 33 NO 1014,4 - 0,0
30.05.2020 14:00:00 19,5 9,9 45 25 57 31 NO 1014,6 40 0,0
30.05.2020 13:00:00 19,6 9,8 42 23 56 30 NO 1015,1 - 0,0
30.05.2020 12:00:00 18,6 9,4 39 21 51 28 NO 1015,6 - 0,0
30.05.2020 11:00:00 19,3 9,8 34 18 56 30 ONO 1015,5 40 0,0
30.05.2020 10:00:00 18,6 9,4 32 18 45 24 ONO 1015,9 - 0,0
30.05.2020 09:00:00 17,3 10,4 28 15 37 20 ONO 1016,4 - 0,0
30.05.2020 08:00:00 15,9 10,0 19 10 26 14 ONO 1016,6 30 0,0
30.05.2020 07:00:00 15,4 8,6 14 8 25 14 O 1016,5 - 0,0
30.05.2020 06:00:00 14,8 8,5 16 9 29 16 O 1016,5 - 0,0
30.05.2020 05:00:00 15,3 7,1 19 10 26 14 O 1016,6 - 0,0
30.05.2020 04:00:00 15,1 6,6 21 12 26 14 O 1016,8 - 0,0
30.05.2020 03:00:00 15,2 6,5 22 12 27 15 O 1017,0 - 0,0
30.05.2020 02:00:00 16,1 5,7 20 11 29 15 OZO 1017,0 - 0,0
30.05.2020 01:00:00 15,5 6,8 19 10 29 15 OZO 1017,4 - 0,0
30.05.2020 00:00:00 16,0 7,2 24 13 37 20 O 1017,4 - 0,0
29.05.2020 23:00:00 15,5 9,2 27 15 37 20 O 1017,3 - 0,0
29.05.2020 22:00:00 16,2 10,7 21 11 32 17 O 1017,1 - 0,0
29.05.2020 21:00:00 16,5 10,6 26 14 35 19 ONO 1016,9 - 0,0
29.05.2020 20:00:00 17,9 12,1 21 11 30 16 ONO 1017,4 20 0,0
29.05.2020 19:00:00 18,5 12,7 21 11 29 15 ONO 1017,5 - 0,0
29.05.2020 18:00:00 18,6 12,3 18 10 31 17 ONO 1017,8 - 0,0
29.05.2020 17:00:00 18,3 13,4 23 13 37 20 ONO 1018,0 20 0,0
29.05.2020 16:00:00 16,7 12,0 12 6 19 10 NO 1018,0 - 0,0
29.05.2020 15:00:00 16,2 11,6 5 3 30 16 NO 1018,3 - 0,2
29.05.2020 14:00:00 14,5 11,8 13 7 27 15 ZO 1018,8 20 0,6
29.05.2020 13:00:00 14,7 11,3 23 12 34 19 Z 1018,7 - 3,0
29.05.2020 12:00:00 13,6 12,7 27 15 61 33 OZO 1019,3 - 13,5
29.05.2020 11:00:00 16,2 11,1 36 19 60 32 O 1017,9 10 0,0
29.05.2020 10:00:00 18,2 11,7 19 11 34 18 W 1017,3 - 0,2
29.05.2020 09:00:00 18,8 5,9 8 5 14 7 W 1017,7 - 0,0
29.05.2020 08:00:00 18,8 7,2 3 2 31 17 ONO 1017,4 20 0,0
29.05.2020 07:00:00 19,7 3,8 17 9 31 17 ZW 1017,5 - 0,0
29.05.2020 06:00:00 19,0 3,6 19 10 36 19 ZW 1017,7 - 0,0
29.05.2020 05:00:00 19,0 4,0 19 10 37 20 WZW 1017,7 20 0,0
29.05.2020 04:00:00 19,5 3,6 23 12 41 22 ZW 1018,1 - 0,0
29.05.2020 03:00:00 18,5 6,0 12 6 21 12 WZW 1019,0 - 0,0
29.05.2020 02:00:00 19,0 5,8 2 1 16 8 ZO 1019,3 - 0,0
29.05.2020 01:00:00 19,0 6,5 11 6 24 13 ZW 1019,6 - 0,0
29.05.2020 00:00:00 18,9 6,7 19 10 24 13 ZW 1020,3 - 0,0
28.05.2020 23:00:00 18,6 10,7 8 4 11 6 Z 1021,0 - 0,0
28.05.2020 22:00:00 18,4 13,0 6 3 14 7 ZZW 1021,1 - 0,0
28.05.2020 21:00:00 18,6 13,9 10 5 20 11 WZW 1021,4 - 0,0
28.05.2020 20:00:00 20,2 13,9 12 6 23 12 W 1021,6 30 0,0
28.05.2020 19:00:00 21,7 14,8 16 9 28 15 W 1021,5 - 0,0
28.05.2020 18:00:00 21,8 14,9 18 10 27 15 W 1021,7 - 0,0
28.05.2020 17:00:00 22,3 13,4 18 10 26 14 W 1022,1 - 0,0
28.05.2020 16:00:00 21,7 14,6 20 11 33 18 W 1022,5 - 0,0
28.05.2020 15:00:00 21,6 15,2 21 11 31 17 W 1022,9 - 0,0
28.05.2020 14:00:00 21,4 14,8 22 12 29 16 W 1023,5 - 0,0
28.05.2020 13:00:00 20,8 14,4 19 11 29 15 W 1024,2 - 0,0
28.05.2020 12:00:00 20,8 14,9 14 8 25 13 W 1024,5 - 0,0
28.05.2020 11:00:00 20,2 14,6 18 10 26 14 W 1025,0 40 0,0
28.05.2020 10:00:00 19,1 13,5 15 8 19 10 W 1025,5 - 0,0
28.05.2020 09:00:00 18,4 12,6 11 6 16 9 W 1026,0 - 0,0
28.05.2020 08:00:00 17,3 10,4 9 5 13 7 W 1025,9 30 0,0
28.05.2020 07:00:00 18,2 9,5 4 2 8 4 W 1026,2 - 0,0
28.05.2020 06:00:00 17,4 10,5 4 2 6 4 O 1026,1 - 0,0
28.05.2020 05:00:00 17,9 7,9 2 1 12 7 ZO 1026,2 30 0,0
28.05.2020 04:00:00 17,9 10,3 9 5 19 11 WZW 1026,4 - 0,0
28.05.2020 03:00:00 17,9 10,0 14 7 24 13 ZW 1026,6 - 0,0
28.05.2020 02:00:00 17,2 7,8 10 5 15 8 W 1027,0 - 0,0
28.05.2020 01:00:00 17,2 5,8 5 3 23 12 WZW 1027,0 - 0,0
28.05.2020 00:00:00 17,5 7,2 16 9 22 12 O 1026,9 - 0,0
27.05.2020 23:00:00 18,0 13,3 10 5 20 11 O 1026,9 - 0,0
27.05.2020 22:00:00 18,3 13,2 14 8 29 15 O 1026,8 - 0,0
27.05.2020 21:00:00 18,8 11,6 10 5 30 16 O 1026,3 - 0,0
27.05.2020 20:00:00 20,1 11,6 15 8 41 22 NO 1026,1 40 0,0
27.05.2020 19:00:00 19,8 13,5 31 17 41 22 NNO 1025,9 - 0,0
27.05.2020 18:00:00 20,7 13,4 32 17 47 26 NO 1026,0 - 0,0
27.05.2020 17:00:00 21,8 7,6 36 19 51 28 NO 1026,3 - 0,0
27.05.2020 16:00:00 22,2 6,0 42 23 53 29 NO 1026,3 - 0,0
27.05.2020 15:00:00 22,1 5,1 37 20 51 28 NO 1026,7 - 0,0
27.05.2020 14:00:00 22,3 7,7 41 22 51 27 NO 1026,8 40 0,0
27.05.2020 13:00:00 25,1 4,2 37 20 58 31 ONO 1026,8 - 0,0
27.05.2020 12:00:00 25,1 5,8 31 17 48 26 ONO 1026,7 - 0,0
27.05.2020 11:00:00 24,1 1,7 23 13 48 26 O 1026,8 - 0,0
27.05.2020 10:00:00 23,5 2,3 26 14 46 25 OZO 1026,6 - 0,0
27.05.2020 09:00:00 22,6 1,6 27 15 41 22 OZO 1026,4 - 0,0
27.05.2020 08:00:00 21,5 2,2 12 6 41 22 ZO 1026,3 30 0,0
27.05.2020 07:00:00 20,5 2,3 30 16 46 25 ZO 1025,5 - 0,0
27.05.2020 06:00:00 19,9 3,1 17 9 33 18 Z 1025,5 - 0,0
27.05.2020 05:00:00 19,3 11,6 5 3 39 21 ZW 1025,1 30 0,0
27.05.2020 04:00:00 20,5 5,3 21 11 51 28 ZZO 1024,4 - 0,0
27.05.2020 03:00:00 20,6 6,2 25 13 40 21 ZO 1024,4 - 0,0
27.05.2020 02:00:00 20,4 6,7 24 13 35 19 OZO 1024,3 - 0,0
27.05.2020 01:00:00 20,7 7,0 28 15 40 22 O 1024,4 - 0,0
27.05.2020 00:00:00 19,5 12,7 17 9 26 14 O 1024,4 - 0,0
26.05.2020 23:00:00 19,5 16,3 7 4 9 5 ONO 1024,1 - 0,0
26.05.2020 22:00:00 19,5 16,3 3 1 9 5 O 1023,6 - 0,0
26.05.2020 21:00:00 19,9 16,7 6 4 10 6 WZW 1023,0 - 0,0
26.05.2020 20:00:00 21,6 16,8 8 4 18 10 WZW 1022,9 28 0,0
26.05.2020 19:00:00 22,3 16,3 10 5 19 10 W 1022,6 - 0,0
26.05.2020 18:00:00 22,7 16,7 9 5 16 9 W 1022,7 - 0,0
26.05.2020 17:00:00 23,8 16,3 6 3 20 11 WNW 1023,0 20 0,0
26.05.2020 16:00:00 22,2 16,2 7 4 19 10 N 1023,4 - 0,0
26.05.2020 15:00:00 22,1 15,0 9 5 21 11 NNO 1023,8 - 0,0
26.05.2020 14:00:00 21,4 13,6 10 6 22 12 NNO 1024,1 20 0,0
26.05.2020 13:00:00 21,9 10,7 12 7 22 12 NNO 1024,4 - 0,0
26.05.2020 12:00:00 21,6 14,7 17 9 29 15 WNW 1024,5 - 0,0
26.05.2020 11:00:00 20,9 15,2 14 8 18 10 W 1024,2 - 0,0
26.05.2020 10:00:00 21,3 10,5 4 2 13 7 NNW 1023,7 - 0,0
26.05.2020 09:00:00 23,9 4,3 10 5 16 9 ONO 1023,2 - 0,0
26.05.2020 08:00:00 22,3 4,8 6 4 11 6 O 1023,1 - 0,0
26.05.2020 07:00:00 20,6 3,8 8 4 9 5 OZO 1023,0 - 0,0
26.05.2020 06:00:00 19,1 3,3 7 4 8 4 O 1022,9 - 0,0
26.05.2020 05:00:00 19,7 3,4 5 3 11 6 O 1022,8 - 0,0
26.05.2020 04:00:00 19,0 8,0 6 3 10 5 OZO 1023,1 - 0,0

tt = temperatuur
td = dauwpunt
ff = windsnelheid
fx = windstoten
dd = windrichting
ppp = luchtdruk
vv = zicht
rr = neerslag

Weerstations in de omgeving